AirNav   Bose ProFlight Aviation Headset
 
 843 users online  

3I4 Richwood Municipal Airport
Richwood, West Virginia, USA

GOING TO RICHWOOD?


FAA INFORMATION EFFECTIVE 19 JULY 2018

Location

FAA Identifier: 3I4
Lat/Long: 38-15-30.2000N / 080-39-04.8000W
38-15.503333N / 080-39.080000W
38.2583889 / -80.6513333
(estimated)
Elevation: 2486 ft. / 757.7 m (surveyed)
Variation: 06W (1985)
From city: 6 miles W of RICHWOOD, WV
Time zone: UTC -4 (UTC -5 during Standard Time)
Zip code: 26202

Airport Operations

Airport use: Open to the public
Activation date: 01/1960
Control tower: no
ARTCC: WASHINGTON CENTER
FSS: ELKINS FLIGHT SERVICE STATION [703-724-4288]
NOTAMs facility: EKN (NOTAM-D service available)
Attendance: IREG
Wind indicator: yes
Segmented circle: no
Lights: ACTVT LIRL RWY 10/28 5 CLICKS - CTAF.

Airport Communications

CTAF: 122.9

Nearby radio navigation aids

VOR radial/distance  VOR name  Freq  Var
RNLr027/(18.5)RAINELLE VOR116.6004W
LWBr341/26.7GREENBRIER VOR/DME116.0508W
BKWr044/36.3BECKLEY VOR/DME117.7006W

Airport Services

Parking: tiedowns
Bottled oxygen: NONE
Bulk oxygen: NONE

Runway Information

Runway 10/28

Dimensions: 3360 x 60 ft. / 1024 x 18 m
Surface: asphalt, in fair condition
SOFT SHOULDERS.
Runway edge lights: non-standard
RY 10/28 LIRL OTS INDFLY. NON-STANDARD SPACING, NO THLD LGTS.
Runway edge markings: RY 10/28 NUMBERS AND CNTRLN NON-STANDARD SIZE AND FADED.
RUNWAY 10  RUNWAY 28
Latitude: 38-15.531975N38-15.473707N
Longitude: 080-39.428585W080-38.730232W
Elevation: 2416.0 ft.2486.0 ft.
Gradient: 2.1% UP
Traffic pattern: leftleft
Runway heading: 102 magnetic, 096 true282 magnetic, 276 true
Markings: NSTD, in fair conditionNSTD, in fair condition
Obstructions: 18 ft. other, 222 ft. from runway, 60 ft. right of centerline, 1:1 slope to clear
30 FT TREES 0-200 FT FM THRESHOLD, 0-125 FT FM CENTERLINE BOTH SIDES.
70 ft. trees, 275 ft. from runway, 140 ft. left and right of centerline, 1:1 slope to clear
RY 28 10 FT GND 30-300 FT DSTC.

Airport Ownership and Management from official FAA records

Ownership: Publicly-owned
Owner: CITY OF RICHWOOD
6 WHITE AVE
RICHWOOD, WV 26261
Phone 304-846-2596
Manager: JOHN CAUDLE
1652 AIRPORT ROAD
FENWICK, WV 26202
Phone 304-846-6650
AFTR HRS 304-846-6650 OR 304-573-5964 (AMGR CELL) FOR ARPT ACCESS.

Airport Operational Statistics

Aircraft based on the field: 8
Single engine airplanes: 6
Ultralights: 2
    
Aircraft operations: 200/year *
50% transient general aviation
50% local general aviation
* for 12-month period ending 31 December 2016

Additional Remarks

RY 10/28 NO SNOW REMOVAL. RUNWAY FREQUENTLY SNOW COVERED WINTER MONTHS.
DEER & BIRDS ON & INVOF ARPT.
ARPT CLSD NIGHTS.
PARALLEL TWY CLSD OCT-APR.
ARPT PHYS. ADDR. 3437 AIRPORT RD. RICHWOOD, WV.

Instrument Procedures

There are no published instrument procedures at 3I4.

Some nearby airports with instrument procedures:

KSXL - Summersville Airport (10 nm W)
48I - Braxton County Airport (26 nm N)
KLWB - Greenbrier Valley Airport (27 nm SE)
KBKW - Raleigh County Memorial Airport (36 nm SW)
KHSP - Ingalls Field Airport (43 nm SE)
 
Loc | Ops | Rwys | IFR | FBO | Links
Com | Nav | Svcs | Stats | Notes


 
Area around 3I4 (Richwood Municipal Airport)
 
Road maps at: MapQuest Bing Google
 
Aerial photo
WARNING: Photo may not be current or correct
Aerial photo of 3I4 (Richwood Municipal Airport)
Photo taken 23-May-2009
looking northeast.

Do you have a better or more recent aerial photo of Richwood Municipal Airport that you would like to share? If so, please send us your photo.

 
Sectional chart

 
Airport distance calculator
Flying to Richwood Municipal Airport? Find the distance to fly.

From to 3I4

Sunrise and sunset
Times for 14-Aug-2018
 Local
(UTC-4)
 Zulu
(UTC)
Morning civil twilight06:0910:09
Sunrise06:3710:37
Sunset20:1700:17
Evening civil twilight20:4500:45

Current date and time
Zulu (UTC)  15-Aug-2018 03:35:16
Local (UTC-4)  14-Aug-2018 23:35:16
 
METAR
KLWB 
26nm SE 
150315Z AUTO 00000KT 10SM CLR 17/15 A3014 RMK AO2 T01650149
KBKW 
35nm SW 
150251Z AUTO 00000KT 10SM CLR 17/14 A3014 RMK AO2 SLP177 T01720139 51013 TSNO
KHSP 
44nm SE 
150315Z AUTO 30008KT 10SM OVC080 19/18 A3019 RMK AO2 T01870176
KCRW 
45nm W 
150254Z 00000KT 10SM CLR 20/19 A3005 RMK AO2 SLP169 T02000189 51012
KW22 
48nm N 
150315Z AUTO 00000KT 10SM FEW041 19/19 A3008 RMK AO2
TAF
KLWB 
26nm SE 
141938Z 1420/1518 28006KT P6SM SCT045 FM150700 00000KT 3SM BR SCT003 FM150900 00000KT 1/4SM FG BKN001 FM151300 00000KT 3SM BR SCT003 BKN009 FM151430 VRB03KT P6SM SCT050
NOTAMs
Click for the latest NOTAMs
NOTAMs are issued by the DoD/FAA and will open in a separate window not controlled by AirNav.

 

 
 

Would you like to see your business listed on this page?

 If your business provides an interesting product or service to pilots, flight crews, aircraft, or users of the Richwood Municipal Airport, you should consider listing it here.  To start the listing process, click on the button below
 
Add a business
 

Other Pages about Richwood Municipal Airport

Update a link
 
Copyright © AirNav, LLC. All rights reserved. Privacy Policy  Contact